TimeCST,TemperatureF,Dew PointF,Humidity,Sea Level PressureIn,VisibilityMPH,Wind Direction,Wind SpeedMPH,Gust SpeedMPH,PrecipitationIn,Events,Conditions,WindDirDegrees,DateUTC
12:53 AM,28.9,15.1,56,30.22,10.0,South,8.1,-,N/A,,Clear,180,2012-12-12 06:53:00
1:53 AM,28.0,15.1,58,30.22,10.0,South,8.1,-,N/A,,Clear,180,2012-12-12 07:53:00
2:53 AM,28.0,14.0,56,30.22,10.0,South,6.9,-,N/A,,Clear,180,2012-12-12 08:53:00
3:53 AM,28.0,14.0,56,30.22,10.0,South,6.9,-,N/A,,Clear,180,2012-12-12 09:53:00
4:53 AM,28.0,12.9,53,30.23,10.0,South,5.8,-,N/A,,Clear,190,2012-12-12 10:53:00
5:53 AM,28.4,12.2,51,30.22,10.0,South,5.8,-,N/A,,Clear,170,2012-12-12 11:53:00
6:53 AM,27.0,14.0,58,30.27,10.0,South,5.8,-,N/A,,Clear,180,2012-12-12 12:53:00
7:53 AM,30.0,15.1,54,30.28,10.0,South,8.1,-,N/A,,Clear,180,2012-12-12 13:53:00
8:53 AM,36.0,15.1,43,30.28,10.0,South,11.5,-,N/A,,Clear,180,2012-12-12 14:53:00
9:53 AM,41.0,15.1,35,30.30,10.0,SSW,16.1,-,N/A,,Clear,210,2012-12-12 15:53:00
10:53 AM,45.0,14.0,29,30.30,10.0,SW,13.8,20.7,N/A,,Clear,220,2012-12-12 16:53:00
11:53 AM,46.9,12.0,24,30.28,10.0,SSW,13.8,21.9,N/A,,Clear,210,2012-12-12 17:53:00
12:53 PM,48.9,10.0,21,30.25,10.0,SSW,15.0,24.2,N/A,,Clear,210,2012-12-12 18:53:00
1:53 PM,50.0,9.0,19,30.22,10.0,South,13.8,23.0,N/A,,Clear,190,2012-12-12 19:53:00
2:53 PM,51.1,10.0,19,30.22,10.0,SSW,11.5,-,N/A,,Clear,200,2012-12-12 20:53:00
3:53 PM,48.9,10.9,22,30.22,10.0,South,15.0,-,N/A,,Clear,190,2012-12-12 21:53:00
4:53 PM,44.1,14.0,30,30.21,10.0,South,10.4,-,N/A,,Clear,170,2012-12-12 22:53:00
5:53 PM,41.0,12.2,31,30.18,10.0,South,9.2,-,N/A,,Clear,170,2012-12-12 23:53:00
6:53 PM,39.0,12.9,34,30.21,10.0,South,8.1,-,N/A,,Clear,170,2012-12-13 00:53:00
7:53 PM,39.0,12.9,34,30.21,10.0,South,10.4,-,N/A,,Clear,170,2012-12-13 01:53:00
8:53 PM,39.9,14.0,35,30.19,10.0,SSE,10.4,-,N/A,,Clear,160,2012-12-13 02:53:00
9:53 PM,39.0,15.1,38,30.20,10.0,South,12.7,-,N/A,,Clear,170,2012-12-13 03:53:00
10:53 PM,39.0,16.0,39,30.22,10.0,South,12.7,-,N/A,,Clear,180,2012-12-13 04:53:00
11:53 PM,37.9,17.1,43,30.23,10.0,South,10.4,-,N/A,,Clear,180,2012-12-13 05:53:00